Location: Clanezzo
(45.7500°N, 9.6000°E)
Time: 01:08:38
(UTC+00:00)

Meteor 2-12 Rocket - Pass Details

Date: 12 May 2021
Orbit: 935 x 958 km, 82.5° (Epoch: 23 June)

Event Time Altitude Azimuth Distance (km) Brightness Sun altitude
Rises 21:10:48 0° 349° (N) 3,612 8.7 -19.7°
Reaches altitude 10° 21:13:17 10° 349° (N) 2,661 7.8 -19.9°
Maximum altitude 21:19:22 80° 264° (W) 955 4.4 -20.5°
Enters shadow 21:22:12 34° 181° (S) 1,505 5.0 -20.7°
